Corrida de Spa
Corrida de Spa 20/11/2015 - 6,5 km
Mise à jour le : 24/11/2015 à 19:22
Classement définitif, aucune correction possible
Place Nom Prénom Dossard Temps Vitesse Allure Place. Cat. Catégorie
1 BALHAN PIERRE-ANTOINE 803 20:57 18,61 3:13 1 Séniors
2 BALHAN ROBIN 924 21:39 18,00 3:19 2 Séniors
3 VOLC ADRIEN 969 22:11 17,58 3:24 3 Séniors
4 ROSU MICHAEL 907 22:29 17,34 3:27 4 Séniors
5 VERCAMMEN VINCENT 862 22:45 17,14 3:30 5 Séniors
6 LUXEN ANTOINE 598 22:52 17,05 3:31 6 Séniors
7 DETHIER JEROME 231 22:53 17,04 3:31 7 Séniors
8 HENDRICKS VICTOR 938 22:54 17,02 3:31 1 Espoirs Garçons
9 BRONLET BENOIT 119 23:05 16,89 3:33 1 Vétérans 1
10 FAYMONVILLE JEAN 903 23:07 16,86 3:33 2 Espoirs Garçons
11 LANGER STEPHAN 986 23:11 16,82 3:34 8 Séniors
12 MELON QUENTIN 1066 23:19 16,72 3:35 9 Séniors
13 JAMSIN RUBEN 829 23:31 16,58 3:37 3 Espoirs Garçons
14 MARQUET JORDAN 606 23:34 16,54 3:37 10 Séniors
15 BOEMER MARVIN 891 23:41 16,47 3:38 11 Séniors
16 WIERTZ XAVIER 780 23:42 16,44 3:38 12 Séniors
17 MEURENS THOMAS 1016 23:51 16,34 3:40 4 Espoirs Garçons
18 DENEFFE GUILLAUME 936 23:53 16,33 3:40 13 Séniors
19 MARECHAL ANTHONY 1022 23:55 16,30 3:40 14 Séniors
20 HERZET FREDERICK 4 23:59 16,26 3:41 15 Séniors
21 BLANCHY REGIS 86 24:08 16,15 3:42 16 Séniors
22 SNACKERS VALENTIN 1083 24:12 16,11 3:43 17 Séniors
23 PAWELKOWSKI DAVID 1010 24:18 16,05 3:44 18 Séniors
24 TRILLET JEFF 1137 24:20 16,02 3:44 19 Séniors
25 DEGUELDRE JEAN LOUIS 919 24:31 15,90 3:46 1 Vétérans 2
26 CORMAN XAVIER 178 24:33 15,88 3:46 20 Séniors
27 STOLLENBERG JORDI 622 24:35 15,86 3:46 21 Séniors
28 MACKELS DANIEL 984 24:36 15,85 3:47 2 Vétérans 1
29 HELLEMANNS ERIC 1126 24:38 15,83 3:47 3 Vétérans 1
30 WALRAFF WALLY 678 24:41 15,79 3:47 4 Vétérans 1
31 INCONNU INCONNU 881 24:52 15,68 0
32 COLLARD ARNAUD 1059 24:57 15,62 3:50 5 Espoirs Garçons
33 LECLERCQ JORDAN 429 25:00 15,60 3:50 22 Séniors
34 DENEYER JEAN FRANCOIS 1111 25:03 15,57 3:51 6 Espoirs Garçons
35 MEURISSE PAUL 1099 25:04 15,55 3:51 23 Séniors
36 REYNERS PATRICK 944 25:06 15,53 3:51 2 Vétérans 2
37 BRIDDA JOREL 1081 25:16 15,43 3:53 24 Séniors
38 ENGLEBERT JEAN-FRANCOIS 939 25:18 15,41 3:53 25 Séniors
39 LEHAEN PIERRE-OLIVIER 436 25:32 15,27 3:55 5 Vétérans 1
40 ANDRES GABY 44 25:33 15,26 3:55 1 Ainées 1
41 THIRIFAYS DELPHINE 906 25:34 15,25 3:56 1 Espoirs Filles
42 JOSKIN DAMIEN 390 25:36 15,23 3:56 26 Séniors
43 BEUKEN SERGE 80 25:38 15,21 3:56 6 Vétérans 1
44 DELVAUX GARY 208 25:41 15,18 3:57 27 Séniors
45 LELEW DAVID 1039 25:43 15,16 3:57 28 Séniors
46 MICHAUX ARNAUD 954 25:46 15,13 3:57 7 Vétérans 1
47 BAUDINET CHARLES 1086 25:48 15,11 3:58 7 Espoirs Garçons
48 DORTU FRANCOIS 933 25:49 15,10 3:58 29 Séniors
49 DORTU PATRICK 932 25:50 15,09 3:58 30 Séniors
50 MARCHAL PIERRE 1215 25:52 15,07 3:58 31 Séniors
51 MAGAIN PIERRE 904 25:54 15,05 3:59 8 Espoirs Garçons
52 RENSONNET DIDIER 1224 25:56 15,03 3:59 8 Vétérans 1
53 GOMZE MICHEL 272 25:57 15,02 3:59 9 Vétérans 1
54 FORTHOMME ADRIEN 942 25:59 15,01 3:59 9 Espoirs Garçons
55 WOOLF ALAN 695 26:00 15,00 4:00 3 Vétérans 2
56 HEWNICO LAURENT 1221 26:01 14,99 4:00 32 Séniors
57 BRONLET MATHIEU 1005 26:02 14,97 4:00 33 Séniors
58 HENNEN THIEBAUT 1217 26:04 14,96 4:00 34 Séniors
59 BUCHE JEAN-PASCAL 1045 26:05 14,94 4:00 10 Vétérans 1
60 SCAILLET GEOFFREY 1001 26:07 14,93 4:01 10 Espoirs Garçons
61 JANDRAIN FRANCOIS 381 26:09 14,91 4:01 35 Séniors
62 DELOYER THOMAS 202 26:10 14,90 4:01 11 Espoirs Garçons
63 FEYEN PIERRE 886 26:12 14,88 4:01 36 Séniors
64 HUBY FABIEN 940 26:14 14,86 4:02 37 Séniors
65 NOEL JULIEN 663 26:16 14,84 4:02 38 Séniors
66 HAC JEAN-BASTIEN 901 26:18 14,83 4:02 12 Espoirs Garçons
67 WERDING OLIVIER 1044 26:19 14,81 4:03 11 Vétérans 1
68 HAVARD THOMAS 916 26:22 14,79 4:03 13 Espoirs Garçons
69 WANSART PIERRE 1219 26:25 14,76 4:03 12 Vétérans 1
70 LEJEUNE DAVID 553 26:26 14,75 4:04 13 Vétérans 1
71 VANDENBORRE JULIEN 657 26:29 14,73 4:04 39 Séniors
72 JANSEN ADRIEN 1085 26:31 14,70 4:04 40 Séniors
73 NAWYN BENJAMIN 5 26:35 14,67 4:05 14 Vétérans 1
74 HALLEUX PIERRE 1072 26:49 14,54 4:07 14 Espoirs Garçons
75 LIEGEOIS MARC 926 26:56 14,48 4:08 15 Vétérans 1
76 JOURDAN GUY 503 26:59 14,45 4:09 41 Séniors
77 PAULY DIDIER 844 27:00 14,44 4:09 16 Vétérans 1
78 SONTAG THIERRY 615 27:02 14,42 4:09 42 Séniors
79 KLINKENBERG QUENTIN 1084 27:06 14,39 4:10 15 Espoirs Garçons
80 BOUCHOMS JEAN-MARC 1082 27:07 14,38 4:10 43 Séniors
81 THOMAS JORDAN 1006 27:08 14,37 4:10 44 Séniors
82 GLESNER PIERRE 1110 27:10 14,35 4:10 45 Séniors
83 VITELLO CHRISTOPHE 1127 27:13 14,33 4:11 46 Séniors
84 THIRION DIEGO 1021 27:13 14,32 4:11 16 Espoirs Garçons
85 DEPAYE NICOLAS 817 27:15 14,31 4:11 17 Vétérans 1
86 VLIEGEN ASTRID 773 27:17 14,29 4:11 1 Dames
87 DEHON ARNAUD 212 27:21 14,25 4:12 47 Séniors
88 JACQUE OLIVIER 374 27:23 14,24 4:12 48 Séniors
89 MASSIN JEAN-PHILIPPE 484 27:27 14,21 4:13 49 Séniors
90 DESSOUROUX JEAN 227 27:28 14,19 4:13 1 Vétérans 3
91 TODDE VINCENT 1091 27:30 14,17 4:13 50 Séniors
92 BRASSEUR JULES 1096 27:32 14,16 4:14 17 Espoirs Garçons
93 DEWART RENAUD 1011 27:34 14,14 4:14 51 Séniors
94 STEINBUSCH VINCENT 620 27:37 14,12 4:14 18 Vétérans 1
95 STASSEN THOMAS 1103 27:41 14,08 4:15 18 Espoirs Garçons
96 BREVER CHLOE 115 27:45 14,05 4:16 2 Espoirs Filles
97 WIERTZ ARNAUD 779 27:46 14,04 4:16 52 Séniors
98 KASHINSKI NICOLE 884 27:48 14,02 4:16 2 Ainées 1
99 DE FROIDMONT GUILLAUME 978 27:52 14,00 4:17 19 Espoirs Garçons
100 BROUWIER PIERRE 121 27:53 13,98 4:17 2 Vétérans 3
101 LEGRAND STEVE 979 27:55 13,97 4:17 53 Séniors
102 PAULY AURORE 1007 27:56 13,95 4:17 2 Dames
103 KERZMANN SEBASTIEN 1064 27:58 13,94 4:18 54 Séniors
104 FLAMANO MICHAEL 985 28:00 13,92 4:18 55 Séniors
105 FRIEDRICH SIMON 1043 28:02 13,91 4:18 56 Séniors
106 COLLARD-BOVY JUSTIN 879 28:03 13,90 4:19 57 Séniors
107 LIEGEOIS MANON 449 28:05 13,88 4:19 3 Dames
108 LECHANTEUR JEREMY 1027 28:06 13,87 4:19 58 Séniors
109 REYNDERS LUC 1056 28:08 13,85 4:19 19 Vétérans 1
110 LUX RALPH 902 28:10 13,84 4:20 4 Vétérans 2
111 HORWARD FRANCOISE 365 28:12 13,83 4:20 3 Ainées 1
112 BRONFORT NICOLAS 1136 28:13 13,81 4:20 59 Séniors
113 RITROVATO SYLVAIN 575 28:16 13,79 4:21 20 Vétérans 1
114 NOUPRE ROMAIN 1075 28:18 13,78 4:21 60 Séniors
115 HUTSCHEMACKERS BERNARD 369 28:19 13,77 4:21 21 Vétérans 1
116 HURDEBISE SEBASTIEN 876 28:21 13,75 4:21 61 Séniors
117 HENROTAY ROLAND 1153 28:23 13,74 4:22 62 Séniors
118 JASPAR CHRISTIAN 383 28:25 13,72 4:22 3 Vétérans 3
119 VAN RUYMBEKE ZOE 981 28:27 13,71 4:22 3 Espoirs Filles
120 CRUCIFIX CHARLES 871 28:29 13,69 4:23 63 Séniors
121 KROONEN FABRICE 1057 28:31 13,67 4:23 22 Vétérans 1
122 THOME GREGORY 1213 28:32 13,66 4:23 64 Séniors
123 WIERTZ JEREMY 1225 28:34 13,65 4:23 65 Séniors
124 VAN WARBECK REMY 872 28:36 13,64 4:24 66 Séniors
125 KROONEN MAXIM 1058 28:46 13,55 4:25 20 Espoirs Garçons
126 SCHWANEN ERIC 908 28:49 13,53 4:26 67 Séniors
127 ERNST SAMUEL 962 28:50 13,52 4:26 68 Séniors
128 FORTHOMME MARJORIE 911 28:51 13,51 4:26 4 Dames
129 HERMANN BENJAMIN 448 28:53 13,50 4:26 69 Séniors
130 EL BALDI SAID 258 28:55 13,48 4:26 23 Vétérans 1
131 DAUMEN PIERRE 1206 28:57 13,47 4:27 5 Vétérans 2
132 ACUNZO ALEXANDRE 937 29:01 13,43 4:27 21 Espoirs Garçons
133 VANBRABANT RAPHAEL 653 29:04 13,41 4:28 24 Vétérans 1
134 HARDY GREGORY 430 29:07 13,39 4:28 70 Séniors
135 HASARD BENJAMIN 1115 29:16 13,32 4:30 22 Espoirs Garçons
136 LANNEER ERIC 834 29:22 13,28 4:31 6 Vétérans 2
137 HALLEUX JEAN MARIE 337 29:23 13,27 4:31 25 Vétérans 1
138 PIRLOT AXELLE 947 29:25 13,25 4:31 4 Ainées 1
139 WERY MICHEL 687 29:27 13,24 4:31 7 Vétérans 2
140 BERTRAND DOMINIQUE 517 29:29 13,23 4:32 8 Vétérans 2
141 WATAR FRANCIS 776 29:31 13,21 4:32 26 Vétérans 1
142 WEUSTEN CEDRIC 778 29:32 13,20 4:32 71 Séniors
143 CRASSON VINCENT 943 29:34 13,19 4:33 9 Vétérans 2
144 MATHEYS GEOFFREY 1147 29:36 13,17 4:33 72 Séniors
145 LHERMITTE MICHEL 946 29:38 13,16 4:33 27 Vétérans 1
146 DENOEL MAXIME 1150 29:39 13,15 4:33 73 Séniors
147 VINAMONT OLIVIER 896 29:42 13,12 4:34 74 Séniors
148 VAN AS NATHALIE 647 29:45 13,10 4:34 5 Ainées 1
149 HEUSSCHEN DOMINIQUE 359 29:48 13,08 4:35 10 Vétérans 2
150 MARTINEZ DAVID 1143 29:52 13,06 4:35 23 Espoirs Garçons
151 FONTAINE SERGE 291 29:54 13,04 4:36 28 Vétérans 1
152 THONNARD EMILIE 634 29:56 13,03 4:36 4 Espoirs Filles
153 GUIDOLIN ROBIN 1026 29:57 13,02 4:36 75 Séniors
154 HANSROUL MICHAEL 340 30:00 13,00 4:37 76 Séniors
155 VANDENBROECK SERGE 910 30:04 12,97 4:37 4 Vétérans 3
156 DELCOUR PHILIPPE 190 30:07 12,95 4:38 29 Vétérans 1
157 SOMJA JEAN PHILIPPE 613 30:09 12,93 4:38 77 Séniors
158 PLOM CORENTIN 1018 30:11 12,91 4:38 78 Séniors
159 LORQUET SYLVIE 741 30:14 12,89 4:39 1 Ainées 2
160 MOHRING THIBAULT 1017 30:16 12,88 4:39 79 Séniors
161 ORBAN SARAH 528 30:17 12,87 4:39 5 Dames
162 ELOYE JONATHAN 261 30:18 12,87 4:39 80 Séniors
163 SOMJA VICTOR 1203 30:20 12,86 4:40 11 Vétérans 2
164 VAN DE WINKEL THOMAS 763 30:21 12,85 4:40 81 Séniors
165 POHL DIDIER 702 30:22 12,84 4:40 12 Vétérans 2
166 BURNET OLIVIER 122 30:23 12,83 4:40 82 Séniors
167 BEULEN BRUNO 1119 30:24 12,82 4:40 83 Séniors
168 GOHY BENOIT 1148 30:26 12,81 4:40 84 Séniors
169 DROUVEN VALENTIN 1050 30:27 12,81 4:41 85 Séniors
170 PIRLOT BERNARD 541 30:28 12,80 4:41 86 Séniors
171 LESPIRE MARC 878 30:30 12,79 4:41 30 Vétérans 1
172 FOCKEDEY ANNE 350 30:33 12,76 4:42 6 Ainées 1
173 MOUREAU JORDAN 998 30:34 12,76 4:42 87 Séniors
174 BOLLETTE ANTHONY 1141 30:36 12,74 4:42 88 Séniors
175 DE COSTER THEOPHILE 1101 30:39 12,72 4:43 24 Espoirs Garçons
176 BASTIN MARTI 1104 30:41 12,71 4:43 25 Espoirs Garçons
177 HANSOUL NICOLAS 1077 30:44 12,69 4:43 89 Séniors
178 MARCHAL FRANCOIS 1135 30:47 12,67 4:44 90 Séniors
179 BURGERS ERIC 123 30:48 12,66 4:44 31 Vétérans 1
180 PONCELET NICOLAS 703 30:50 12,65 4:44 91 Séniors
181 SCHREURS BERNARD 600 30:52 12,63 4:45 92 Séniors
182 COLLARD JONATHAN 1074 30:54 12,62 4:45 93 Séniors
183 LE GAC TOM 1218 30:55 12,61 4:45 26 Espoirs Garçons
184 BLODEN BENJAMIN 90 30:56 12,61 4:45 94 Séniors
185 BROHIL THOMAS 1051 30:57 12,60 4:45 27 Espoirs Garçons
186 PERWEZ THIERRY 1117 30:58 12,59 4:45 32 Vétérans 1
187 SCHEEN JEROME 1052 30:59 12,58 4:46 28 Espoirs Garçons
188 BOSMANS SANDRINE 951 31:00 12,58 4:46 6 Dames
189 LANSMANS VICTOR 1114 31:01 12,57 4:46 29 Espoirs Garçons
190 JUSTE CHRISTIAAN 398 31:02 12,57 4:46 13 Vétérans 2
191 BREUER CLAIRE 993 31:02 12,56 4:46 7 Ainées 1
192 DACO RAPHAEL 965 31:03 12,55 4:46 95 Séniors
193 MAQUET CÉCILE 1053 31:05 12,55 4:46 8 Ainées 1
194 THIRION VALENTIN 856 31:06 12,54 4:47 96 Séniors
195 DETHIER MARTIN 1140 31:08 12,52 4:47 97 Séniors
196 PAU MARC 941 31:10 12,51 4:47 98 Séniors
197 LECOCQ YVAN 930 31:12 12,50 4:48 33 Vétérans 1
198 TALBOT THIERRY 882 31:13 12,49 4:48 34 Vétérans 1
199 COLSON LEOPOLD 1124 31:15 12,48 4:48 99 Séniors
200 DIAZ DELA AZURN 1038 31:16 12,47 4:48 7 Dames
201 DE KRANE JEREMY 922 31:18 12,46 4:48 30 Espoirs Garçons
202 DE KRANE FLORIAN 955 31:19 12,45 4:49 31 Espoirs Garçons
203 BRANCE JOSE 103 31:21 12,44 4:49 35 Vétérans 1
204 WINANDY ALAIN 1088 31:23 12,42 4:49 36 Vétérans 1
205 TERF MICHEL 755 31:23 12,42 4:49 14 Vétérans 2
206 PARTHOENS THOMAS 1116 31:32 12,37 4:51 100 Séniors
207 PHILIPPE LAURA 696 31:33 12,36 4:51 8 Dames
208 JONLET LIONEL 13 31:35 12,35 4:51 101 Séniors
209 DEVIVIER CEDRIC 1107 31:37 12,33 4:51 102 Séniors
210 SICIM MUSTAFA 1202 31:38 12,33 4:52 37 Vétérans 1
211 COLLARD SERGE 145 31:39 12,32 4:52 38 Vétérans 1
212 INCONNU INCONNU 880 31:42 12,30 0
213 CLOSON ANTOINE 1062 31:45 12,28 4:53 32 Espoirs Garçons
214 JAMAR XAVIER 1205 31:48 12,26 4:53 39 Vétérans 1
215 CHARLIER MANU 1204 31:49 12,26 4:53 40 Vétérans 1
216 DABOIS MAXIME 160 31:50 12,25 4:53 103 Séniors
217 PIEP RENE 929 31:51 12,24 4:54 15 Vétérans 2
218 NIESSEN ROBERT 1040 31:52 12,23 4:54 16 Vétérans 2
219 DECROUPET LUC 928 31:54 12,22 4:54 17 Vétérans 2
220 MANNENS DOMINIQUE 1210 31:55 12,22 4:54 104 Séniors
221 CHEVOLET ANGELIQUE 1139 31:56 12,21 4:54 9 Dames
222 SCHNAKERS OLIVIER 853 31:58 12,20 4:55 105 Séniors
223 RENNOTTE CHRISTIAN 1130 32:00 12,19 4:55 106 Séniors
224 DIET FABRICE 945 32:01 12,18 4:55 41 Vétérans 1
225 MARTIN NICOLAS 1145 32:02 12,17 4:55 107 Séniors
226 COALLA ALVAREZ FERNANDO 866 32:04 12,16 4:56 108 Séniors
227 LAMY STEPHANIE 416 32:04 12,16 4:56 9 Ainées 1
228 HENDRICK JAMES 827 32:06 12,15 4:56 33 Espoirs Garçons
229 NAHON SYLVIE 516 32:08 12,14 4:56 2 Ainées 2
230 HARDY MARC 437 32:16 12,08 4:57 42 Vétérans 1
231 GRANDJEAN JEAN-LUC 914 32:17 12,08 4:58 43 Vétérans 1
232 DUPONT CHLOE 867 32:19 12,07 4:58 10 Dames
233 GARCIA MICHEL 1149 32:19 12,06 4:58 109 Séniors
234 CLERFAYS HUBERT 142 32:20 12,06 4:58 5 Vétérans 3
235 BURLEON QUENTIN 990 32:21 12,05 4:58 110 Séniors
236 PAULY SHIREL 843 32:23 12,04 4:58 11 Dames
237 REMACLE GAETAN 1214 32:25 12,03 4:59 111 Séniors
238 RENNOTTE RAPHAEL 715 32:28 12,01 4:59 112 Séniors
239 GAVRAY DOMINIQUE 308 32:31 11,99 5:00 10 Ainées 1
240 REYNDERS ROMAIN 1054 32:32 11,98 5:00 34 Espoirs Garçons
241 CUPERS PHILIPPE 159 32:33 11,98 5:00 44 Vétérans 1
242 HERZET MIREILLE 457 32:35 11,97 5:00 3 Ainées 2
243 WINANDY MARGAUX 1089 32:37 11,96 5:01 5 Espoirs Filles
244 MAGNETTE YVES 470 32:40 11,94 5:01 18 Vétérans 2
245 THONNARD JEAN-YVES 633 32:43 11,92 5:02 19 Vétérans 2
246 ACEDO SANCHO CARLOS 38 32:44 11,91 5:02 45 Vétérans 1
247 GURZENDA FREDERIC 1046 32:46 11,90 5:02 6 Vétérans 3
248 PHILIPPE AUDREY 693 32:48 11,89 5:02 12 Dames
249 VANDEN BULCK ARNAUD 1146 32:50 11,88 5:03 113 Séniors
250 HAVARD NOAH 918 32:51 11,87 5:03 35 Espoirs Garçons
251 PLUNUS SONIA 545 32:53 11,86 5:03 1 Ainées 3
252 PLUNUS ALAIN 546 32:54 11,85 5:03 20 Vétérans 2
253 CHRISTIAEN FRANCOIS 156 32:56 11,84 5:04 114 Séniors
254 LAMBERT DAMIEN 531 32:57 11,83 5:04 115 Séniors
255 VISÉ ROMAIN 864 32:59 11,82 5:04 46 Vétérans 1
256 HAUSEUX CHRISTOPHE 1118 33:03 11,80 5:05 21 Vétérans 2
257 LEYENS GERALD 579 33:06 11,78 5:05 116 Séniors
258 KEVERS ERIC 831 33:08 11,77 5:05 47 Vétérans 1
259 DEBROUX WALTER 925 33:08 11,77 5:05 36 Espoirs Garçons
260 HOCK MICHAEL 468 33:11 11,75 5:06 117 Séniors
261 HONNAY SOPHIE 1212 33:13 11,74 5:06 11 Ainées 1
262 DELSAUX CELINE 1090 33:20 11,70 5:07 6 Espoirs Filles
263 ROUFOSSE PIERROT 977 33:23 11,68 5:08 37 Espoirs Garçons
264 MINGUET XAVIER 1128 33:24 11,67 5:08 118 Séniors
265 ROUFOSSE ARNAUD 1034 33:26 11,66 5:08 119 Séniors
266 BECKERS FRANCIS 994 33:28 11,65 5:08 48 Vétérans 1
267 TIMMERS LAURENT 740 33:29 11,65 5:09 120 Séniors
268 CRETTELS FRANKLIN 1032 33:31 11,63 5:09 121 Séniors
269 SCHMETZ DAVID 895 33:32 11,63 5:09 122 Séniors
270 MOLINGHEN LAURIE 841 33:34 11,62 5:09 13 Dames
271 WINTGENS SOPHIE 691 33:35 11,61 5:10 14 Dames
272 PESSER ALAIN 535 33:37 11,60 5:10 49 Vétérans 1
273 VILLEVAL ALAIN 966 33:38 11,59 5:10 50 Vétérans 1
274 LEJEUNE GEOFFRAY 1106 33:39 11,59 5:10 123 Séniors
275 BERGMANS THOMAS 1098 33:41 11,58 5:10 124 Séniors
276 VERLEGH FRANCOIS 1211 33:43 11,57 5:11 125 Séniors
277 DESENFANTS ROMAIN 1076 33:44 11,56 5:11 126 Séniors
278 BALTUS JOSE 58 33:45 11,55 5:11 7 Vétérans 3
279 MESSERICH MARIE 967 33:48 11,53 5:12 12 Ainées 1
280 LOFFET ANDRE 870 33:50 11,53 5:12 51 Vétérans 1
281 NIBUS FELICIEN 1060 33:51 11,52 5:12 127 Séniors
282 BERTRANG JULIEN 79 33:53 11,50 5:12 8 Vétérans 3
283 GODFROID JULIEN 1024 33:55 11,50 5:13 128 Séniors
284 VERHUST MICHEL 863 33:57 11,49 5:13 52 Vétérans 1
285 FISCHER GAELLE 821 33:59 11,47 5:13 15 Dames
286 COUNET GERARD 1200 34:01 11,46 5:14 22 Vétérans 2
287 LEUSCH MYRTILLE 997 34:03 11,45 5:14 16 Dames
288 BINANE JULIEN 996 34:05 11,44 5:14 129 Séniors
289 SCHATAS MICKAËL 1201 34:07 11,43 5:15 130 Séniors
290 VANAUBEL MARILYN 765 34:08 11,42 5:15 17 Dames
291 ZEYEN CARINE 1079 34:10 11,41 5:15 18 Dames
292 RENARD JEAN-CHARLES 848 34:11 11,41 5:15 131 Séniors
293 DIEPART JULIAN 1094 34:13 11,39 5:15 38 Espoirs Garçons
294 DIEPART NICOLAS 1095 34:15 11,38 5:16 132 Séniors
295 LECLERCQ XAVIER 18 34:16 11,38 5:16 133 Séniors
296 KLEINERMANN PATRICK 832 34:17 11,37 5:16 134 Séniors
297 DEBROUX GERMAIN 957 34:19 11,36 5:16 39 Espoirs Garçons
298 LANGE VANESSA 1121 34:21 11,35 5:17 13 Ainées 1
299 THONARD AXEL 956 34:22 11,34 5:17 40 Espoirs Garçons
300 LEMAITRE JEAN-PIERRE 837 34:24 11,34 5:17 53 Vétérans 1
301 DEFRAITEUR ELISE 1120 34:25 11,33 5:17 19 Dames
302 LINCE GUY 452 34:27 11,32 5:18 23 Vétérans 2
303 DEMOLLIN MARC 970 34:31 11,30 5:18 9 Vétérans 3
304 REYNDERS SIMON 1055 34:33 11,28 5:19 41 Espoirs Garçons
305 REICHNING GREGORY 1000 34:35 11,28 5:19 135 Séniors
306 BECKERS JULIEN 995 34:36 11,27 5:19 42 Espoirs Garçons
307 LEPORCK MARGAUX 1071 34:38 11,26 5:19 20 Dames
308 HANSEN CORALINE 826 34:43 11,23 5:20 21 Dames
309 URLINGS LAURENT 934 34:50 11,19 5:21 136 Séniors
310 MANSET ADELINE 474 34:51 11,19 5:21 22 Dames
311 NYSSEN EMILIE 668 34:51 11,19 5:21 23 Dames
312 ABAD LAMAS PATRICIA 37 34:52 11,18 5:21 4 Ainées 2
313 ASMAN PAUL 1208 34:53 11,18 5:22 10 Vétérans 3
314 HERMAN SYLVIANE 353 34:55 11,17 5:22 5 Ainées 2
315 MACQUET ARNAUD 840 34:56 11,16 5:22 137 Séniors
316 PORFIRIONE CEDRIC 1199 34:58 11,15 5:22 138 Séniors
317 HARDY CHRISTOPHE 1138 34:59 11,14 5:23 54 Vétérans 1
318 BAIWIR ANTHONY 57 35:01 11,13 5:23 139 Séniors
319 BASTIN PAUL 61 35:07 11,10 5:24 11 Vétérans 3
320 RONDOZ BERTRAND 851 35:08 11,10 5:24 140 Séniors
321 THONART MARC 885 35:12 11,08 5:24 55 Vétérans 1
322 DEVIVIER MARC 295 35:15 11,06 5:25 56 Vétérans 1
323 HEXSPOOL LOUISE 963 35:17 11,05 5:25 6 Ainées 2
324 DESSY PHILIPPE 1047 35:20 11,03 5:26 12 Vétérans 3
325 DELOYER JEAN-PAUL 237 35:23 11,02 5:26 57 Vétérans 1
326 BRAHAM ARNAUD 1041 35:33 10,97 5:28 141 Séniors
327 HALLEUX ERIC 336 35:35 10,96 5:28 142 Séniors
328 DE WERGIFOSSE ANGÉLIQUE 816 35:37 10,95 5:28 14 Ainées 1
329 BRAGARD LAURA 909 35:38 10,94 5:28 24 Dames
330 PIROTTON DIDIER 701 35:39 10,94 5:29 58 Vétérans 1
331 BALHAN PAUL 802 35:41 10,93 5:29 59 Vétérans 1
332 ARNOULD CATHERINE 865 35:55 10,86 5:31 15 Ainées 1
333 CRUTEEN DONA 1037 35:57 10,85 5:31 25 Dames
334 MASSAGNER FANNY 1222 36:10 10,78 5:33 26 Dames
335 KAYE LUDOVIC 987 36:30 10,68 5:36 143 Séniors
336 CLOSON CHLOE 1063 36:32 10,67 5:37 27 Dames
337 DE OLIVEIRA RUY 905 36:33 10,67 5:37 144 Séniors
338 HAVARD MARIE 917 36:35 10,66 5:37 7 Espoirs Filles
339 HALLEUX LUDOVIC 825 36:37 10,65 5:38 145 Séniors
340 GROULARD CHARLES 1102 36:39 10,64 5:38 43 Espoirs Garçons
341 DE BACKER LINA 1220 36:41 10,63 5:38 28 Dames
342 BOURGUIGNON LAURENT 923 36:42 10,62 5:38 0 H Sans Cat
343 NOLL FRANCOISE 975 36:44 10,62 5:39 16 Ainées 1
344 COLINET GERALD 1100 36:46 10,61 5:39 146 Séniors
345 DECKERS BERNARD 976 36:47 10,60 5:39 147 Séniors
346 LEFEBVRE NICOLAS 988 36:48 10,59 5:39 148 Séniors
347 WIERTZ THOMAS 1226 36:50 10,59 5:40 149 Séniors
348 ROUFOSSE UGO 34 36:57 10,55 5:41 60 Vétérans 1
349 PROVE SAM 953 36:59 10,54 5:41 44 Espoirs Garçons
350 PROVE MICHAEL 952 37:02 10,53 5:41 150 Séniors
351 SPAILIER ULRIC 1125 37:04 10,52 5:42 45 Espoirs Garçons
352 MONTLAHUC ELODIE 1216 37:05 10,52 5:42 29 Dames
353 ALLIANCE CAROLINE 1223 37:06 10,51 5:42 30 Dames
354 DUPAS LOUIS 949 37:08 10,50 5:42 151 Séniors
355 MELON VIOLAINE 889 37:09 10,49 5:43 31 Dames
356 DUMOULIN LIONEL 915 37:10 10,49 5:43 152 Séniors
357 LEBEAU LUDIVINE 424 37:11 10,48 5:43 32 Dames
358 DEFOURNY CAROLINE 1020 37:12 10,48 5:43 33 Dames
359 SLANIA PIERRE 883 37:14 10,47 5:43 61 Vétérans 1
360 NULENS CHRISTIAN 1073 37:16 10,46 5:44 62 Vétérans 1
361 BRODEL ALEXANDRA 808 37:16 10,46 5:44 34 Dames
362 BASTIN AURELIE 63 37:17 10,46 5:44 35 Dames
363 BOURCY SANDRINE 1061 37:19 10,45 5:44 36 Dames
364 KEIL YVES 509 37:21 10,44 5:44 63 Vétérans 1
365 MOREAU SABRINA 507 37:22 10,43 5:45 17 Ainées 1
366 FAYMONVILLE CEDRIC 279 37:23 10,43 5:45 153 Séniors
367 BOUILLON BEATRICE 1122 37:24 10,42 5:45 18 Ainées 1
368 BOUCHOMS DELPHINE 1070 37:26 10,42 5:45 37 Dames
369 NISTAJAKIS LAURA 1019 37:27 10,41 5:45 38 Dames
370 COLSON CAMILLE 1097 37:28 10,41 5:45 39 Dames
371 BILLEN JEAN 84 37:30 10,40 5:46 154 Séniors
372 MATHONET MARGAUX 1067 37:31 10,39 5:46 40 Dames
373 HEINDRICHS CHARLINE 874 37:34 10,38 5:46 41 Dames
374 BEAUPAIN DAVID 805 37:34 10,38 5:46 155 Séniors
375 STEFFEN SARAH 1036 37:37 10,37 5:47 42 Dames
376 CHAMBERLAND MATHIEU 1035 37:38 10,36 5:47 156 Séniors
377 RAHIER MURIEL 960 37:39 10,36 5:47 19 Ainées 1
378 ZONDERMAN MARTIN 1105 37:42 10,34 5:48 46 Espoirs Garçons
379 DORMAL CATHERINE 320 37:45 10,33 5:48 20 Ainées 1
380 JANSEN FRANK 1087 37:49 10,31 5:49 64 Vétérans 1
381 SPIERTZ FRANCOIS 1142 37:51 10,30 5:49 157 Séniors
382 RESTIVO DIEGO 850 38:01 10,26 5:50 47 Espoirs Garçons
383 LEDENT REGIS 897 38:06 10,23 5:51 158 Séniors
384 RENAERS STEPHANE 562 38:06 10,23 5:51 65 Vétérans 1
385 PAGANESSI FRANCOIS 1209 38:11 10,21 5:52 159 Séniors
386 JAMSIN MARC 830 38:14 10,20 5:52 66 Vétérans 1
387 LANNEER CHARLOTTE 835 38:17 10,18 5:53 8 Espoirs Filles
388 STATTROPP PATRICK 898 38:20 10,17 5:53 13 Vétérans 3
389 GRANDJEAN MARGAUX 1002 38:23 10,16 5:54 9 Espoirs Filles
390 GRANDJEAN IGOR 1003 38:24 10,15 5:54 160 Séniors
391 GERDAY JEAN-PIERRE 1129 38:26 10,14 5:54 161 Séniors
392 BOULANGER AXEL 961 38:29 10,13 5:55 162 Séniors
393 KUMMELER STEPHANIE 527 38:33 10,11 5:55 21 Ainées 1
394 LARMINIER ANNE-MARIE 421 38:34 10,11 5:56 2 Ainées 3
395 LEROY MATHILDE 1144 38:36 10,10 5:56 43 Dames
396 HERCOT JEAN 1207 38:46 10,06 5:57 24 Vétérans 2
397 HALLEUX FABRICE 927 38:52 10,03 5:58 67 Vétérans 1
398 MAUCHIN STEPHANIE 1013 38:54 10,03 5:59 44 Dames
399 DUBLET SERGE 819 38:58 10,01 5:59 14 Vétérans 3
400 ARNOLDY CAROLE 801 38:59 10,00 5:59 45 Dames
401 DUPUIS PHILIPPE 820 39:01 9,99 6:00 163 Séniors
402 WYNANTS YVES 877 39:05 9,98 6:00 68 Vétérans 1
403 GERARD MARIE 823 39:09 9,96 6:01 46 Dames
404 DELWAIDE ANNE 209 39:16 9,93 6:02 7 Ainées 2
405 DANTINE NELSON 1042 39:17 9,93 6:02 48 Espoirs Garçons
406 VERCAMMEN MICHEL 768 39:35 9,85 6:05 69 Vétérans 1
407 BLOEMERS KRISTEL 1004 39:38 9,84 6:05 22 Ainées 1
408 LEMOINE ALINE 563 39:40 9,83 6:06 23 Ainées 1
409 RICHARD JEAN-MICHEL 1049 39:42 9,82 6:06 70 Vétérans 1
410 COLLARD BENOIT 1012 39:44 9,81 6:06 164 Séniors
411 BULTE BARBARA 809 39:46 9,81 6:07 47 Dames
412 PIETTE MICHEL 846 39:52 9,78 6:08 71 Vétérans 1
413 THONON MAURINE 887 39:53 9,77 6:08 48 Dames
414 GASPAR GAELLE 822 39:59 9,75 6:09 49 Dames
415 PONSARD ANNE-CATHERINE 992 40:26 9,64 6:13 24 Ainées 1
416 LAMBERT FREDERIC 991 40:28 9,64 6:13 72 Vétérans 1
417 NICKELS DANIELLE 640 40:48 9,56 6:16 3 Ainées 3
418 LABOURY STEPHANIE 1131 40:49 9,55 6:16 25 Ainées 1
419 TONELLE STÉPHANIE 858 41:04 9,50 6:19 50 Dames
420 MOINEAN FREDERIC 972 41:08 9,48 6:19 73 Vétérans 1
421 JENNES PATRICK 1065 41:12 9,47 6:20 25 Vétérans 2
422 BAUDOIN AURÉLIE 804 41:27 9,41 6:22 51 Dames
423 CORNEL RACHEL 812 41:28 9,40 6:22 52 Dames
424 JONGEN LOOAN 1113 41:30 9,40 6:23 49 Espoirs Garçons
425 COMBLE CHARLES 811 41:34 9,38 6:23 15 Vétérans 3
426 MONTENAIR NICOLAS 1112 41:36 9,37 6:24 165 Séniors
427 DENOZ BENJAMIN 220 41:38 9,37 6:24 166 Séniors
428 HURDEBISE SOPHIE 875 41:41 9,35 6:24 53 Dames
429 MICHOEL BAPTISTE 1008 41:42 9,35 6:25 50 Espoirs Garçons
430 RAHIER EMILIE 1009 41:44 9,34 6:25 54 Dames
431 DELOYER COLINE 948 41:45 9,34 6:25 10 Espoirs Filles
432 HANSMAWN CELINE 1014 41:47 9,33 6:25 55 Dames
433 HAUSMANN LYDIE 1015 41:48 9,33 6:25 56 Dames
434 SON EMILY 964 41:49 9,32 6:26 26 Ainées 1
435 MASSIN EMILIE 869 41:59 9,29 6:27 57 Dames
436 DELFOSSE CLAIRE 868 42:01 9,28 6:27 58 Dames
437 SCHOONBROODT LAURENCE 1151 42:17 9,22 6:30 27 Ainées 1
438 LERUTH CHRISTOPHE 1152 42:18 9,22 6:30 74 Vétérans 1
439 CRAPS KLAARTJE 815 42:23 9,20 6:31 28 Ainées 1
440 BELLY LAURENCE 971 42:36 9,15 6:33 59 Dames
441 BREDA JENNIFER 912 42:38 9,15 6:33 60 Dames
442 BRENU CELINE 1132 42:42 9,13 6:34 61 Dames
443 CRAVATTE KEVIN 913 42:43 9,13 6:34 167 Séniors
444 NOUPRE EMILIE 950 42:47 9,11 6:34 168 Séniors
445 CRAPS TINE 814 42:49 9,11 6:35 29 Ainées 1
446 LAURENT ANDRE 920 42:51 9,10 6:35 26 Vétérans 2
447 KLEIN ERIC 921 42:52 9,09 6:35 27 Vétérans 2
448 HENDRICK CLÉMENTINE 828 43:15 9,02 6:39 11 Espoirs Filles
449 BRAGARD CHANTAL 109 43:21 9,00 6:40 8 Ainées 2
450 LEMPEREUR PATRICE 446 43:31 8,96 6:41 16 Vétérans 3
451 LOVENBERG GUY 465 43:31 8,96 6:41 28 Vétérans 2
452 SAUVAGE NATACHA 1093 43:50 8,90 6:44 62 Dames
453 VANDENBEMPT GAETAN 860 44:18 8,80 6:49 75 Vétérans 1
454 VANDENBEMPT MAUDE 861 44:20 8,80 6:49 12 Espoirs Filles
455 RABEZARA SIDONIE 1078 44:25 8,78 6:50 30 Ainées 1
456 KRANSFELD FRANCOISE 935 44:25 8,78 6:50 63 Dames
457 JUSTE JOKE 959 44:28 8,77 6:50 64 Dames
458 HALLET PHILIPPE 958 44:29 8,77 6:50 76 Vétérans 1
459 VAN DYCK JULIE 931 44:39 8,73 6:52 65 Dames
460 SAUVAGE VIRGINIE 1092 44:41 8,73 6:52 66 Dames
461 DIATTA VÉRONIQUE 818 44:43 8,72 6:52 67 Dames
462 THISSEN EVA 974 45:15 8,62 6:57 13 Espoirs Filles
463 ROQUET PIERRE-YVES 852 45:16 8,61 6:57 169 Séniors
464 CHRISTIAENS CHRISTELLE 810 45:20 8,60 6:58 31 Ainées 1
465 GENON MARIE-PIERRE 1048 45:22 8,60 6:58 9 Ainées 2
466 LEJEVNE KATHY 973 45:23 8,59 6:58 32 Ainées 1
467 LAHY ALYSSON 999 45:24 8,59 6:59 68 Dames
468 BERTRAND CÉLINE 807 45:27 8,58 6:59 69 Dames
469 LEONAERS BÉNÉDICTE 838 45:29 8,57 6:59 33 Ainées 1
470 PIRON KATHRIN 847 45:43 8,53 7:02 70 Dames
471 SERRA JULIE 1025 45:44 8,53 7:02 34 Ainées 1
472 BERROD FRANCOIS 806 45:51 8,50 7:03 77 Vétérans 1
473 MARQUET MAITE 890 46:09 8,45 7:06 71 Dames
474 VAN LERBERGHE VERONIQUE 1023 46:16 8,43 7:07 35 Ainées 1
475 BLAISE DOMINIQUE 1033 46:57 8,31 7:13 10 Ainées 2
476 DEBILDE ISABELLE 1028 46:59 8,30 7:13 11 Ainées 2
477 ADAM MURIELLE 39 47:00 8,30 7:13 72 Dames
478 BETSCH FRANCOISE 1029 47:01 8,29 7:14 73 Dames
479 CHAINEUX LANA 983 47:19 8,24 7:16 14 Espoirs Filles
480 FONTINOY MARIE-ZOE 982 47:24 8,23 7:17 15 Espoirs Filles
481 RANDAXHE MARGAUX 888 47:41 8,18 7:20 74 Dames
482 NEVENS JULIE 842 48:16 8,08 7:25 36 Ainées 1
483 KRAJEWSKI ANNE 1068 48:19 8,07 7:26 75 Dames
484 SCHWAIGER PERRINE 1069 48:21 8,07 7:26 76 Dames
485 MICHEL AURELIE 1080 48:23 8,06 7:26 77 Dames
486 HERTEN CELINE 1030 49:00 7,96 7:32 78 Dames
487 NOEL SONIA 1031 49:00 7,96 7:32 37 Ainées 1
488 BREUER SANDRA 1123 49:02 7,95 7:32 38 Ainées 1
489 PETIT JEAN JUSTINE 845 49:32 7,87 7:37 79 Dames
490 GEORGES NADJA 893 49:55 7,81 7:40 39 Ainées 1
491 CORMET INGRID 980 50:14 7,76 7:43 40 Ainées 1
492 LEJEUNE FRANÇOISE 836 50:16 7,76 7:44 41 Ainées 1
493 SERRA AMÉLIE 855 50:18 7,75 7:44 80 Dames
494 HEINS MELANIE 1133 51:00 7,64 7:50 81 Dames
495 HEINS JEANPIERRE 1134 51:00 7,64 7:50 29 Vétérans 2
496 HALLEUX AUDREY 1108 51:22 7,59 7:54 82 Dames
497 LEJEUNE JEROME 1109 51:22 7,59 7:54 170 Séniors
498 DENNE CHARLENE 900 51:51 7,52 7:58 42 Ainées 1
499 HOUSSIER CORALINE 892 52:42 7,40 8:06 83 Dames
500 GEORGES FRÉDÉRICK 894 52:46 7,39 8:07 171 Séniors
501 CAUCHETEUX CELINE 899 53:42 7,26 8:15 43 Ainées 1